contact:dominique.lefevre@mio.osupytheas.fr, maurice.libes@osupytheas.fr, didier.mallarino@osupytheas.fr
Project:EMSO http://www.emso-fr.org/EMSO-France
Depth: 2436.0 m
Title:EMSO Ligure Ouest : Data MII capteur AQUADOPP
Date,Latitude,Longitude,X_East,Y_North,Z_Up,Amplitude_X,Amplitude_Y,Amplitude_Z,Batterie,SoundSpeed,Heading,Pitch,Roll,Pressure,TIS,Speed,Direction
, degrees North, degrees East, m.s-1, m.s-1,m.s-1, 1, 1, 1, Volt, m.s-1, degree, degree, degree, dbar, degree_C, m.s-1, degree
2022-01-25T00:04:03,42.805,6.029,-0.042,0.0,0.015,108.0,107.0,105.0,13.3,1505.2,324.7,-0.8,1.8,2470.794,13.28,0.042,270.0
2022-01-25T00:07:03,42.805,6.029,-0.042,-0.016,-0.008,109.0,107.0,104.0,13.3,1505.2,327.8,-0.7,1.8,2470.788,13.28,0.044,249.1
2022-01-25T00:10:03,42.805,6.029,-0.046,-0.002,0.005,107.0,107.0,104.0,13.3,1505.2,326.3,-0.8,1.9,2470.794,13.28,0.046,267.5
2022-01-25T00:13:03,42.805,6.029,-0.034,-0.017,-0.045,108.0,106.0,104.0,13.4,1505.2,328.6,-0.8,1.8,2470.716,13.28,0.038,243.4
2022-01-25T00:16:03,42.805,6.029,-0.044,-0.006,-0.015,107.0,108.0,103.0,13.3,1505.2,325.3,-0.7,1.8,2470.788,13.28,0.044,262.2
2022-01-25T00:19:03,42.805,6.029,-0.029,-0.004,-0.024,107.0,108.0,105.0,13.3,1505.2,323.9,-0.8,1.8,2470.777,13.29,0.029,262.2
2022-01-25T00:22:03,42.805,6.029,-0.034,0.012,-0.038,108.0,108.0,104.0,13.4,1505.2,325.4,-0.8,1.8,2470.749,13.29,0.036,289.4
2022-01-25T00:25:03,42.805,6.029,-0.026,0.011,-0.031,107.0,107.0,104.0,13.4,1505.2,324.5,-0.7,1.8,2470.747,13.29,0.028,292.9
2022-01-25T00:28:03,42.805,6.029,-0.029,0.001,-0.031,107.0,107.0,105.0,13.4,1505.2,325.6,-0.7,1.8,2470.726,13.29,0.029,272.0
2022-01-25T00:31:03,42.805,6.029,-0.021,-0.001,-0.027,108.0,107.0,105.0,13.4,1505.2,325.9,-0.7,1.8,2470.702,13.29,0.021,267.3
2022-01-25T00:34:03,42.805,6.029,-0.023,0.016,0.006,107.0,106.0,104.0,13.4,1505.2,330.7,-0.8,1.8,2470.711,13.29,0.028,304.8
2022-01-25T00:37:03,42.805,6.029,-0.032,0.026,-0.007,107.0,106.0,105.0,13.3,1505.2,326.3,-0.8,1.8,2470.68,13.29,0.041,309.1
2022-01-25T00:40:03,42.805,6.029,-0.036,0.008,-0.01,107.0,107.0,103.0,13.4,1505.2,327.9,-0.8,1.8,2470.68,13.29,0.036,282.5
2022-01-25T00:43:03,42.805,6.029,-0.04,-0.014,0.016,108.0,106.0,104.0,13.4,1505.2,327.9,-0.7,1.8,2470.702,13.29,0.042,250.7
2022-01-25T00:46:03,42.805,6.029,-0.022,0.0,-0.04,107.0,106.0,104.0,13.4,1505.2,327.4,-0.8,1.8,2470.701,13.29,0.022,270.0
2022-01-25T00:49:03,42.805,6.029,-0.025,0.013,-0.027,106.0,107.0,103.0,13.4,1505.2,326.3,-0.8,1.8,2470.683,13.29,0.028,297.5
2022-01-25T00:52:03,42.805,6.029,-0.033,-0.006,-0.021,107.0,106.0,103.0,13.4,1505.2,327.0,-0.8,1.8,2470.661,13.29,0.033,259.7
2022-01-25T00:55:03,42.805,6.029,-0.044,0.013,-0.008,108.0,106.0,103.0,13.4,1505.2,325.9,-0.8,1.8,2470.649,13.29,0.045,286.5
2022-01-25T00:58:03,42.805,6.029,-0.034,-0.005,-0.009,107.0,106.0,105.0,13.3,1505.2,326.1,-0.8,1.8,2470.671,13.29,0.034,261.6
2022-01-25T01:04:03,42.805,6.029,-0.009,-0.029,-0.039,108.0,106.0,105.0,13.3,1505.2,326.1,-0.7,1.8,2470.698,13.28,0.03,197.2
2022-01-25T01:07:03,42.805,6.029,-0.049,0.03,0.002,108.0,106.0,105.0,13.4,1505.2,326.2,-0.7,1.8,2470.663,13.28,0.057,301.5
2022-01-25T01:10:03,42.805,6.029,-0.032,-0.013,0.0,107.0,106.0,104.0,13.4,1505.2,327.9,-0.8,1.8,2470.687,13.28,0.034,247.9
2022-01-25T01:13:03,42.805,6.029,-0.069,0.018,-0.021,107.0,106.0,104.0,13.4,1505.2,326.3,-0.8,1.8,2470.634,13.28,0.071,284.6
2022-01-25T01:16:03,42.805,6.029,-0.029,0.01,-0.023,106.0,107.0,103.0,13.4,1505.2,331.1,-0.7,1.8,2470.618,13.28,0.03,289.0
2022-01-25T01:19:03,42.805,6.029,-0.04,0.022,-0.011,107.0,108.0,105.0,13.4,1505.2,327.5,-0.8,1.8,2470.625,13.28,0.045,298.8
2022-01-25T01:22:03,42.805,6.029,-0.056,0.038,0.012,107.0,107.0,104.0,13.4,1505.2,329.0,-0.8,1.8,2470.6,13.28,0.067,304.2
2022-01-25T01:25:03,42.805,6.029,-0.027,0.007,-0.019,108.0,106.0,104.0,13.3,1505.2,330.4,-0.8,1.8,2470.642,13.28,0.027,284.5
2022-01-25T01:28:03,42.805,6.029,-0.019,-0.001,0.016,108.0,106.0,104.0,13.3,1505.2,324.6,-0.7,1.9,2470.612,13.29,0.019,267.0
2022-01-25T01:31:03,42.805,6.029,-0.031,0.007,-0.021,107.0,106.0,103.0,13.4,1505.2,323.9,-0.7,1.8,2470.603,13.29,0.031,282.7
2022-01-25T01:34:03,42.805,6.029,-0.039,-0.003,0.0,107.0,106.0,104.0,13.3,1505.2,327.3,-0.8,1.8,2470.617,13.29,0.039,265.6
2022-01-25T01:37:03,42.805,6.029,-0.04,0.02,-0.026,106.0,107.0,104.0,13.4,1505.2,325.8,-0.7,1.8,2470.548,13.29,0.044,296.6
2022-01-25T01:40:03,42.805,6.029,-0.051,0.016,-0.018,106.0,106.0,104.0,13.3,1505.2,327.2,-0.8,1.8,2470.58,13.29,0.053,287.4
2022-01-25T01:43:03,42.805,6.029,-0.055,0.014,-0.021,106.0,106.0,103.0,13.3,1505.2,324.3,-0.8,1.9,2470.532,13.29,0.056,284.3
2022-01-25T01:46:03,42.805,6.029,-0.056,0.001,-0.021,106.0,106.0,104.0,13.3,1505.2,325.6,-0.8,1.8,2470.571,13.29,0.056,271.0
2022-01-25T01:49:03,42.805,6.029,-0.051,0.002,-0.009,106.0,107.0,103.0,13.4,1505.2,326.2,-0.8,1.8,2470.563,13.29,0.051,272.2
2022-01-25T01:52:03,42.805,6.029,-0.03,0.017,-0.001,106.0,106.0,104.0,13.4,1505.2,327.1,-0.8,1.9,2470.53,13.29,0.034,299.5
2022-01-25T01:55:03,42.805,6.029,-0.048,0.009,-0.017,105.0,104.0,103.0,13.4,1505.2,329.5,-0.8,1.8,2470.509,13.29,0.048,280.6
2022-01-25T01:58:03,42.805,6.029,-0.052,-0.001,-0.037,106.0,103.0,102.0,13.3,1505.2,327.0,-0.7,1.8,2470.545,13.29,0.052,268.9
2022-01-25T02:04:03,42.805,6.029,-0.049,0.03,-0.03,106.0,105.0,103.0,13.4,1505.2,326.7,-0.7,1.8,2470.549,13.28,0.057,301.5
2022-01-25T02:07:03,42.805,6.029,-0.059,0.021,-0.034,105.0,105.0,103.0,13.4,1505.2,329.5,-0.7,1.8,2470.517,13.28,0.062,289.6
2022-01-25T02:10:03,42.805,6.029,-0.064,-0.002,-0.026,106.0,104.0,103.0,13.4,1505.2,325.0,-0.8,1.8,2470.496,13.28,0.064,268.2
2022-01-25T02:13:03,42.805,6.029,-0.054,0.027,0.003,107.0,104.0,103.0,13.4,1505.2,329.3,-0.8,1.8,2470.523,13.28,0.06,296.6
2022-01-25T02:16:03,42.805,6.029,-0.07,0.001,-0.011,106.0,104.0,101.0,13.4,1505.2,326.7,-0.8,1.8,2470.546,13.28,0.07,270.8
2022-01-25T02:19:03,42.805,6.029,-0.034,0.008,-0.024,107.0,105.0,103.0,13.4,1505.2,329.0,-0.8,1.8,2470.522,13.28,0.034,283.2
2022-01-25T02:22:03,42.805,6.029,-0.048,0.012,0.018,104.0,106.0,102.0,13.3,1505.2,329.6,-0.8,1.8,2470.47,13.29,0.049,284.0
2022-01-25T02:25:03,42.805,6.029,-0.041,0.002,-0.006,105.0,105.0,103.0,13.3,1505.2,324.3,-0.8,1.8,2470.479,13.29,0.041,272.8
2022-01-25T02:28:03,42.805,6.029,-0.012,0.0,-0.009,105.0,104.0,103.0,13.4,1505.2,330.6,-0.8,1.8,2470.481,13.29,0.012,270.0
2022-01-25T02:31:03,42.805,6.029,-0.036,0.01,-0.007,105.0,105.0,102.0,13.3,1505.2,323.4,-0.8,1.8,2470.479,13.29,0.037,285.5
2022-01-25T02:34:03,42.805,6.029,-0.028,0.019,-0.05,106.0,104.0,102.0,13.4,1505.2,325.7,-0.8,1.8,2470.437,13.29,0.033,304.2
2022-01-25T02:37:03,42.805,6.029,-0.026,0.002,-0.019,103.0,102.0,101.0,13.3,1505.2,329.0,-0.7,1.8,2470.442,13.29,0.026,274.4
2022-01-25T02:40:03,42.805,6.029,-0.046,0.016,-0.013,104.0,103.0,102.0,13.4,1505.2,328.3,-0.8,1.8,2470.444,13.29,0.048,289.2
2022-01-25T02:43:03,42.805,6.029,-0.03,0.009,-0.033,103.0,104.0,102.0,13.3,1505.2,324.6,-0.7,1.9,2470.447,13.29,0.031,286.7
2022-01-25T02:46:03,42.805,6.029,-0.035,0.013,-0.031,105.0,105.0,102.0,13.3,1505.2,325.4,-0.8,1.8,2470.416,13.29,0.037,290.4
2022-01-25T02:49:03,42.805,6.029,-0.04,0.005,0.014,104.0,103.0,102.0,13.4,1505.2,326.5,-0.8,1.8,2470.424,13.29,0.04,277.1
2022-01-25T02:52:03,42.805,6.029,-0.044,0.01,-0.018,105.0,104.0,101.0,13.4,1505.2,324.0,-0.8,1.9,2470.419,13.29,0.045,282.8
2022-01-25T02:55:03,42.805,6.029,-0.036,0.016,-0.019,103.0,104.0,103.0,13.4,1505.2,325.5,-0.7,1.8,2470.439,13.29,0.039,294.0
2022-01-25T02:58:03,42.805,6.029,-0.059,-0.003,-0.009,105.0,105.0,102.0,13.4,1505.2,325.9,-0.8,1.8,2470.451,13.29,0.059,267.1
2022-01-25T03:04:03,42.805,6.029,-0.034,0.019,-0.02,104.0,105.0,103.0,13.4,1505.2,325.4,-0.7,1.8,2470.33,13.28,0.038,299.2
2022-01-25T03:07:03,42.805,6.029,-0.035,-0.007,-0.027,106.0,105.0,102.0,13.4,1505.2,326.5,-0.8,1.8,2470.391,13.28,0.035,258.7
2022-01-25T03:10:03,42.805,6.029,0.001,-0.01,-0.021,105.0,104.0,102.0,13.4,1505.2,328.0,-0.8,1.8,2470.377,13.28,0.01,174.3
2022-01-25T03:13:03,42.805,6.029,-0.05,0.001,-0.02,104.0,103.0,102.0,13.3,1505.2,324.7,-0.8,1.8,2470.365,13.29,0.05,271.1
2022-01-25T03:16:03,42.805,6.029,-0.032,0.005,-0.008,103.0,105.0,103.0,13.4,1505.2,326.6,-0.8,1.8,2470.424,13.29,0.032,278.9
2022-01-25T03:19:03,42.805,6.029,-0.024,0.006,-0.012,103.0,104.0,101.0,13.3,1505.2,328.3,-0.7,1.8,2470.394,13.29,0.024,284.0
2022-01-25T03:22:03,42.805,6.029,-0.028,-0.008,-0.002,104.0,104.0,104.0,13.4,1505.2,322.8,-0.8,1.8,2470.39,13.29,0.029,254.1
2022-01-25T03:25:03,42.805,6.029,-0.021,0.027,0.015,103.0,103.0,102.0,13.3,1505.2,325.8,-0.7,1.8,2470.38,13.29,0.034,322.1
2022-01-25T03:28:03,42.805,6.029,-0.063,0.012,-0.019,103.0,103.0,102.0,13.4,1505.2,329.2,-0.7,1.8,2470.352,13.29,0.064,280.8
2022-01-25T03:31:03,42.805,6.029,-0.042,0.021,0.0,102.0,103.0,103.0,13.3,1505.2,324.1,-0.8,1.8,2470.367,13.29,0.046,296.6
2022-01-25T03:34:03,42.805,6.029,-0.034,-0.005,-0.011,104.0,103.0,101.0,13.4,1505.2,326.3,-0.8,1.8,2470.361,13.29,0.034,261.6
2022-01-25T03:37:03,42.805,6.029,-0.03,0.017,0.014,103.0,104.0,102.0,13.4,1505.2,330.2,-0.8,1.8,2470.342,13.29,0.034,299.5
2022-01-25T03:40:03,42.805,6.029,-0.026,0.03,0.018,103.0,103.0,102.0,13.3,1505.2,328.5,-0.7,1.8,2470.385,13.29,0.039,319.1
2022-01-25T03:43:03,42.805,6.029,-0.049,0.01,-0.036,104.0,103.0,101.0,13.4,1505.2,327.3,-0.7,1.8,2470.394,13.29,0.05,281.5
2022-01-25T03:46:03,42.805,6.029,-0.037,-0.009,-0.017,103.0,104.0,102.0,13.4,1505.2,328.7,-0.7,1.8,2470.367,13.29,0.038,256.3
2022-01-25T03:49:03,42.805,6.029,-0.03,0.005,-0.022,104.0,102.0,101.0,13.4,1505.2,324.8,-0.8,1.8,2470.329,13.29,0.03,279.5
2022-01-25T03:52:03,42.805,6.029,-0.022,0.021,-0.011,104.0,103.0,102.0,13.4,1505.2,330.3,-0.7,1.8,2470.383,13.29,0.03,313.7
2022-01-25T03:55:03,42.805,6.029,-0.048,0.01,-0.011,102.0,102.0,102.0,13.4,1505.2,328.1,-0.7,1.8,2470.425,13.29,0.049,281.8
2022-01-25T03:58:03,42.805,6.029,-0.023,-0.003,-0.014,104.0,103.0,102.0,13.4,1505.2,328.2,-0.8,1.9,2470.373,13.29,0.023,262.6
2022-01-25T04:04:03,42.805,6.029,-0.04,0.003,-0.018,104.0,103.0,102.0,13.3,1505.2,327.7,-0.8,1.8,2470.418,13.28,0.04,274.3
2022-01-25T04:07:03,42.805,6.029,-0.05,0.018,-0.013,104.0,103.0,101.0,13.4,1505.2,324.9,-0.7,1.8,2470.395,13.28,0.053,289.8
2022-01-25T04:10:03,42.805,6.029,-0.042,0.013,-0.043,102.0,103.0,102.0,13.3,1505.2,330.1,-0.8,1.8,2470.413,13.28,0.043,287.2
2022-01-25T04:13:03,42.805,6.029,-0.032,0.023,-0.027,104.0,101.0,101.0,13.4,1505.2,326.1,-0.7,1.8,2470.413,13.28,0.039,305.7
2022-01-25T04:16:03,42.805,6.029,-0.058,0.005,-0.033,102.0,103.0,101.0,13.4,1505.2,329.6,-0.7,1.8,2470.441,13.29,0.058,274.9
2022-01-25T04:19:03,42.805,6.029,-0.021,0.0,0.015,103.0,103.0,100.0,13.4,1505.2,325.4,-0.7,1.8,2470.43,13.29,0.021,270.0
2022-01-25T04:22:03,42.805,6.029,-0.03,0.0,-0.017,102.0,101.0,102.0,13.4,1505.2,324.3,-0.8,1.8,2470.453,13.29,0.03,270.0
2022-01-25T04:25:03,42.805,6.029,-0.027,0.0,-0.028,103.0,102.0,102.0,13.4,1505.2,324.4,-0.7,1.9,2470.374,13.29,0.026,270.0
2022-01-25T04:28:03,42.805,6.029,-0.043,0.029,-0.011,102.0,103.0,101.0,13.4,1505.2,330.1,-0.8,1.8,2470.432,13.29,0.051,304.0
2022-01-25T04:31:03,42.805,6.029,-0.032,0.005,0.013,102.0,103.0,101.0,13.4,1505.2,325.9,-0.7,1.8,2470.431,13.29,0.032,278.9
2022-01-25T04:34:03,42.805,6.029,-0.047,-0.023,-0.054,102.0,101.0,100.0,13.4,1505.2,328.2,-0.8,1.8,2470.426,13.29,0.052,243.9
2022-01-25T04:37:03,42.805,6.029,-0.032,0.008,0.006,102.0,102.0,100.0,13.4,1505.2,327.7,-0.7,1.8,2470.431,13.29,0.032,284.0
2022-01-25T04:40:03,42.805,6.029,-0.018,-0.005,-0.003,103.0,102.0,101.0,13.4,1505.2,325.6,-0.8,1.9,2470.474,13.29,0.018,254.5
2022-01-25T04:43:03,42.805,6.029,-0.043,0.01,0.002,102.0,101.0,101.0,13.4,1505.2,326.4,-0.8,1.8,2470.474,13.29,0.044,283.1
2022-01-25T04:46:03,42.805,6.029,-0.018,0.01,0.017,102.0,103.0,100.0,13.3,1505.2,323.9,-0.7,1.8,2470.485,13.29,0.02,299.1
2022-01-25T04:49:03,42.805,6.029,-0.041,-0.002,-0.019,102.0,103.0,102.0,13.3,1505.2,330.1,-0.8,1.8,2470.481,13.29,0.041,267.2
2022-01-25T04:52:03,42.805,6.029,-0.015,0.009,0.027,102.0,103.0,101.0,13.4,1505.2,324.2,-0.8,1.8,2470.469,13.29,0.017,301.0
2022-01-25T04:55:03,42.805,6.029,-0.042,0.026,-0.005,101.0,101.0,100.0,13.4,1505.2,329.0,-0.8,1.8,2470.475,13.29,0.049,301.8
2022-01-25T04:58:03,42.805,6.029,-0.01,-0.007,-0.02,101.0,102.0,100.0,13.4,1505.2,328.6,-0.7,1.8,2470.5,13.29,0.012,235.0
2022-01-25T05:04:03,42.805,6.029,-0.035,0.006,-0.024,103.0,101.0,100.0,13.3,1505.2,328.8,-0.7,1.8,2470.536,13.28,0.035,279.7
2022-01-25T05:07:03,42.805,6.029,-0.027,0.006,0.021,103.0,102.0,102.0,13.3,1505.2,331.3,-0.7,1.8,2470.492,13.28,0.027,282.5
2022-01-25T05:10:03,42.805,6.029,-0.023,0.016,-0.035,102.0,102.0,101.0,13.3,1505.2,328.1,-0.8,1.8,2470.495,13.28,0.028,304.8
2022-01-25T05:13:03,42.805,6.029,-0.015,0.011,0.021,102.0,103.0,101.0,13.4,1505.2,327.8,-0.7,1.8,2470.494,13.29,0.018,306.3
2022-01-25T05:16:03,42.805,6.029,-0.047,0.006,-0.002,102.0,102.0,100.0,13.4,1505.2,325.1,-0.8,1.8,2470.484,13.29,0.047,277.3
2022-01-25T05:19:03,42.805,6.029,-0.028,0.014,-0.003,100.0,102.0,101.0,13.4,1505.2,331.0,-0.7,1.8,2470.467,13.29,0.031,296.6
2022-01-25T05:22:03,42.805,6.029,-0.017,-0.004,-0.013,102.0,102.0,101.0,13.3,1505.2,331.1,-0.8,1.8,2470.515,13.29,0.017,256.8
2022-01-25T05:25:03,42.805,6.029,-0.042,-0.002,-0.049,102.0,103.0,102.0,13.4,1505.2,326.4,-0.7,1.8,2470.472,13.29,0.042,267.3
2022-01-25T05:28:03,42.805,6.029,-0.033,0.007,-0.006,101.0,103.0,100.0,13.3,1505.2,328.2,-0.8,1.8,2470.522,13.29,0.033,282.0
2022-01-25T05:31:03,42.805,6.029,-0.017,0.011,-0.003,102.0,102.0,101.0,13.4,1505.2,327.5,-0.7,1.8,2470.473,13.29,0.02,302.9
2022-01-25T05:34:03,42.805,6.029,-0.018,0.004,0.008,102.0,102.0,101.0,13.4,1505.2,328.7,-0.8,1.9,2470.473,13.29,0.018,282.5
2022-01-25T05:37:03,42.805,6.029,-0.015,-0.013,-0.036,104.0,101.0,102.0,13.4,1505.2,331.0,-0.7,1.8,2470.492,13.29,0.019,229.1
2022-01-25T05:40:03,42.805,6.029,-0.033,0.0,-0.007,104.0,103.0,101.0,13.4,1505.2,331.6,-0.8,1.9,2470.515,13.29,0.033,270.0
2022-01-25T05:43:03,42.805,6.029,0.009,0.01,0.007,103.0,101.0,101.0,13.3,1505.2,325.4,-0.8,1.8,2470.513,13.29,0.013,42.0
2022-01-25T05:46:03,42.805,6.029,-0.006,-0.016,-0.041,102.0,102.0,100.0,13.3,1505.2,330.0,-0.8,1.8,2470.511,13.29,0.017,200.6
2022-01-25T05:49:03,42.805,6.029,-0.002,0.005,-0.004,102.0,102.0,100.0,13.4,1505.2,327.7,-0.8,1.8,2470.484,13.29,0.005,338.2
2022-01-25T05:52:03,42.805,6.029,-0.03,-0.003,0.009,101.0,103.0,100.0,13.4,1505.2,326.3,-0.8,1.8,2470.48,13.29,0.03,264.3
2022-01-25T05:55:03,42.805,6.029,-0.002,0.006,0.032,102.0,102.0,101.0,13.4,1505.2,323.7,-0.8,1.8,2470.487,13.29,0.006,341.6
2022-01-25T05:58:03,42.805,6.029,0.008,0.009,0.023,101.0,103.0,101.0,13.4,1505.2,326.7,-0.8,1.8,2470.494,13.29,0.012,41.6
2022-01-25T06:04:03,42.805,6.029,-0.017,-0.006,0.008,102.0,102.0,101.0,13.4,1505.2,326.1,-0.8,1.8,2470.542,13.29,0.018,250.6
2022-01-25T06:07:03,42.805,6.029,0.002,0.0,0.015,102.0,101.0,100.0,13.3,1505.2,324.2,-0.7,1.8,2470.503,13.29,0.002,90.0
2022-01-25T06:10:03,42.805,6.029,-0.01,-0.016,-0.043,102.0,102.0,101.0,13.4,1505.2,324.7,-0.8,1.8,2470.539,13.29,0.018,212.0
2022-01-25T06:13:03,42.805,6.029,-0.022,0.006,-0.007,103.0,102.0,100.0,13.4,1505.2,329.6,-0.8,1.8,2470.498,13.29,0.022,285.3
2022-01-25T06:16:03,42.805,6.029,-0.026,0.008,0.011,101.0,102.0,100.0,13.4,1505.2,329.4,-0.8,1.8,2470.487,13.29,0.027,287.1
2022-01-25T06:19:03,42.805,6.029,-0.04,-0.016,-0.049,105.0,101.0,100.0,13.4,1505.2,329.9,-0.7,1.8,2470.499,13.29,0.043,248.2
2022-01-25T06:22:03,42.805,6.029,-0.039,0.007,-0.011,101.0,102.0,101.0,13.4,1505.2,326.3,-0.7,1.9,2470.532,13.29,0.039,280.2
2022-01-25T06:25:03,42.805,6.029,-0.026,0.013,-0.008,102.0,101.0,100.0,13.4,1505.2,328.8,-0.7,1.8,2470.523,13.29,0.029,296.6
2022-01-25T06:28:03,42.805,6.029,-0.022,-0.005,-0.021,101.0,102.0,101.0,13.4,1505.2,330.2,-0.7,1.8,2470.537,13.29,0.022,257.2
2022-01-25T06:31:03,42.805,6.029,0.005,0.0,-0.015,104.0,102.0,100.0,13.3,1505.2,327.1,-0.8,1.8,2470.558,13.29,0.005,90.0
2022-01-25T06:34:03,42.805,6.029,-0.025,0.003,-0.035,102.0,102.0,101.0,13.4,1505.2,328.9,-0.7,1.8,2470.559,13.29,0.025,276.8
2022-01-25T06:37:03,42.805,6.029,-0.02,-0.011,-0.038,102.0,102.0,101.0,13.4,1505.2,326.3,-0.8,1.8,2470.479,13.29,0.022,241.2
2022-01-25T06:40:03,42.805,6.029,-0.033,-0.023,-0.033,102.0,101.0,101.0,13.4,1505.2,328.3,-0.7,1.8,2470.54,13.29,0.04,235.1
2022-01-25T06:43:03,42.805,6.029,-0.009,-0.009,-0.03,103.0,101.0,101.0,13.4,1505.2,328.2,-0.8,1.8,2470.542,13.29,0.012,225.0
2022-01-25T06:46:03,42.805,6.029,-0.01,-0.008,-0.034,102.0,103.0,101.0,13.4,1505.2,330.4,-0.7,1.8,2470.533,13.29,0.012,231.3
2022-01-25T06:49:03,42.805,6.029,-0.01,-0.004,-0.014,102.0,102.0,101.0,13.4,1505.2,331.4,-0.8,1.8,2470.57,13.29,0.01,248.2
2022-01-25T06:52:03,42.805,6.029,-0.016,-0.004,-0.006,102.0,102.0,101.0,13.3,1505.2,330.6,-0.7,1.8,2470.521,13.29,0.016,256.0
2022-01-25T06:55:03,42.805,6.029,-0.027,0.006,-0.02,102.0,101.0,102.0,13.4,1505.2,330.9,-0.8,1.8,2470.532,13.29,0.027,282.5
2022-01-25T06:58:03,42.805,6.029,-0.032,-0.002,-0.026,101.0,101.0,101.0,13.4,1505.2,326.8,-0.7,1.8,2470.539,13.29,0.032,266.4
2022-01-25T07:04:03,42.805,6.029,-0.005,-0.017,-0.006,102.0,101.0,101.0,13.3,1505.2,328.2,-0.8,1.8,2470.557,13.29,0.017,196.4
2022-01-25T07:07:03,42.805,6.029,-0.018,-0.014,-0.017,102.0,104.0,100.0,13.3,1505.2,328.2,-0.7,1.8,2470.603,13.29,0.022,232.1
2022-01-25T07:10:03,42.805,6.029,-0.023,0.013,-0.023,101.0,102.0,101.0,13.3,1505.2,330.0,-0.7,1.9,2470.55,13.29,0.026,299.5
2022-01-25T07:13:03,42.805,6.029,-0.045,0.004,-0.036,101.0,101.0,100.0,13.3,1505.2,323.8,-0.7,1.8,2470.554,13.29,0.045,275.1
2022-01-25T07:16:03,42.805,6.029,-0.003,-0.007,-0.023,101.0,101.0,100.0,13.3,1505.2,330.1,-0.8,1.8,2470.543,13.29,0.007,203.2
2022-01-25T07:19:03,42.805,6.029,-0.011,0.01,0.047,102.0,101.0,101.0,13.3,1505.2,328.0,-0.8,1.8,2470.532,13.29,0.014,312.3
2022-01-25T07:22:03,42.805,6.029,-0.028,0.006,-0.04,101.0,102.0,100.0,13.4,1505.2,331.8,-0.8,1.8,2470.545,13.29,0.028,282.1
2022-01-25T07:25:03,42.805,6.029,-0.013,-0.004,0.007,102.0,102.0,101.0,13.4,1505.2,326.4,-0.8,1.8,2470.531,13.29,0.013,252.9
2022-01-25T07:28:03,42.805,6.029,-0.021,-0.014,-0.029,101.0,101.0,100.0,13.4,1505.2,327.8,-0.8,1.8,2470.514,13.29,0.025,236.3
2022-01-25T07:31:03,42.805,6.029,-0.034,0.008,0.005,101.0,102.0,100.0,13.4,1505.2,324.5,-0.8,1.8,2470.532,13.29,0.034,283.2
2022-01-25T07:34:03,42.805,6.029,-0.027,-0.025,-0.025,102.0,101.0,101.0,13.4,1505.2,324.1,-0.8,1.8,2470.541,13.29,0.036,227.2
2022-01-25T07:37:03,42.805,6.029,-0.03,-0.009,-0.018,101.0,101.0,101.0,13.3,1505.2,326.9,-0.8,1.8,2470.585,13.29,0.031,253.3
2022-01-25T07:40:03,42.805,6.029,-0.001,-0.018,-0.006,100.0,101.0,100.0,13.4,1505.2,331.3,-0.8,1.8,2470.559,13.29,0.018,183.2
2022-01-25T07:43:03,42.805,6.029,0.017,-0.009,0.012,102.0,101.0,101.0,13.3,1505.2,326.8,-0.7,1.8,2470.579,13.29,0.019,117.9
2022-01-25T07:46:03,42.805,6.029,-0.012,-0.038,-0.026,102.0,102.0,101.0,13.4,1505.2,331.3,-0.7,1.8,2470.565,13.29,0.039,197.5
2022-01-25T07:49:03,42.805,6.029,-0.013,-0.01,0.017,102.0,102.0,101.0,13.4,1505.2,326.8,-0.8,1.8,2470.606,13.29,0.016,232.4
2022-01-25T07:52:03,42.805,6.029,-0.03,-0.017,-0.036,101.0,102.0,101.0,13.4,1505.2,330.3,-0.7,1.9,2470.593,13.29,0.034,240.5
2022-01-25T07:55:03,42.805,6.029,-0.026,0.0,-0.017,102.0,103.0,101.0,13.4,1505.2,326.7,-0.8,1.8,2470.613,13.29,0.026,270.0
2022-01-25T07:58:03,42.805,6.029,-0.015,-0.015,-0.031,100.0,102.0,101.0,13.4,1505.2,325.2,-0.8,1.8,2470.635,13.29,0.021,225.0
2022-01-25T08:04:03,42.805,6.029,-0.031,-0.005,0.0,102.0,101.0,101.0,13.4,1505.2,330.9,-0.8,1.8,2470.607,13.28,0.031,260.8
2022-01-25T08:07:03,42.805,6.029,-0.005,-0.01,-0.016,102.0,102.0,101.0,13.3,1505.2,324.5,-0.7,1.8,2470.558,13.28,0.011,206.6
2022-01-25T08:10:03,42.805,6.029,-0.026,-0.012,-0.014,102.0,101.0,101.0,13.3,1505.2,327.4,-0.8,1.8,2470.586,13.28,0.028,245.2
2022-01-25T08:13:03,42.805,6.029,-0.01,-0.011,-0.005,102.0,102.0,100.0,13.3,1505.2,325.6,-0.8,1.8,2470.564,13.29,0.014,222.3
2022-01-25T08:16:03,42.805,6.029,-0.007,-0.033,-0.06,102.0,101.0,100.0,13.3,1505.2,329.8,-0.8,1.8,2470.536,13.29,0.033,192.0
2022-01-25T08:19:03,42.805,6.029,-0.008,-0.026,-0.033,100.0,103.0,101.0,13.4,1505.2,324.5,-0.7,1.8,2470.561,13.29,0.027,197.1
2022-01-25T08:22:03,42.805,6.029,-0.014,-0.025,-0.007,101.0,103.0,100.0,13.4,1505.2,327.1,-0.8,1.8,2470.552,13.29,0.028,209.3
2022-01-25T08:25:03,42.805,6.029,-0.022,-0.021,-0.008,101.0,100.0,101.0,13.4,1505.2,330.7,-0.8,1.8,2470.529,13.29,0.03,226.3
2022-01-25T08:28:03,42.805,6.029,-0.016,-0.009,-0.001,100.0,103.0,100.0,13.4,1505.2,329.7,-0.8,1.8,2470.585,13.29,0.018,240.6
2022-01-25T08:31:03,42.805,6.029,-0.017,-0.009,-0.009,102.0,101.0,102.0,13.4,1505.2,324.9,-0.7,1.8,2470.559,13.29,0.019,242.1
2022-01-25T08:34:03,42.805,6.029,0.008,-0.019,-0.011,101.0,103.0,99.0,13.3,1505.2,325.9,-0.8,1.8,2470.584,13.29,0.02,157.2
2022-01-25T08:37:03,42.805,6.029,-0.045,-0.024,-0.026,102.0,101.0,101.0,13.4,1505.2,326.5,-0.8,1.8,2470.613,13.29,0.051,241.9
2022-01-25T08:40:03,42.805,6.029,-0.016,-0.025,-0.03,102.0,101.0,101.0,13.3,1505.2,326.1,-0.8,1.8,2470.568,13.29,0.029,212.6
2022-01-25T08:43:03,42.805,6.029,-0.026,-0.023,-0.015,99.0,102.0,101.0,13.3,1505.2,327.2,-0.7,1.8,2470.59,13.29,0.034,228.5
2022-01-25T08:46:03,42.805,6.029,-0.023,-0.014,-0.023,103.0,102.0,100.0,13.4,1505.2,325.2,-0.7,1.8,2470.61,13.29,0.026,238.7
2022-01-25T08:49:03,42.805,6.029,-0.006,-0.021,0.014,102.0,102.0,101.0,13.4,1505.2,326.3,-0.7,1.8,2470.595,13.29,0.021,195.9
2022-01-25T08:52:03,42.805,6.029,-0.003,-0.025,-0.046,102.0,102.0,99.0,13.4,1505.2,329.7,-0.7,1.8,2470.63,13.29,0.025,186.8
2022-01-25T08:55:03,42.805,6.029,-0.026,-0.018,-0.061,101.0,101.0,101.0,13.4,1505.2,326.5,-0.8,1.8,2470.597,13.29,0.031,235.3
2022-01-25T08:58:03,42.805,6.029,-0.007,-0.011,-0.004,101.0,103.0,101.0,13.3,1505.2,329.8,-0.7,1.8,2470.647,13.29,0.013,212.5
2022-01-25T09:04:03,42.805,6.029,0.003,-0.033,-0.031,101.0,101.0,100.0,13.3,1505.2,324.3,-0.8,1.8,2470.671,13.28,0.033,174.8
2022-01-25T09:07:03,42.805,6.029,0.0,0.005,-0.022,102.0,102.0,100.0,13.4,1505.2,330.1,-0.8,1.9,2470.63,13.28,0.005,0.0
2022-01-25T09:10:03,42.805,6.029,0.001,-0.002,-0.029,101.0,102.0,102.0,13.4,1505.2,324.5,-0.7,1.8,2470.661,13.28,0.002,153.4
2022-01-25T09:13:03,42.805,6.029,-0.027,-0.013,-0.026,101.0,103.0,100.0,13.3,1505.2,325.4,-0.8,1.8,2470.674,13.28,0.029,244.3
2022-01-25T09:16:03,42.805,6.029,-0.017,-0.008,-0.028,100.0,103.0,101.0,13.3,1505.2,327.4,-0.8,1.8,2470.683,13.29,0.018,244.8
2022-01-25T09:19:03,42.805,6.029,-0.034,-0.016,-0.038,101.0,102.0,100.0,13.3,1505.2,330.2,-0.8,1.8,2470.717,13.29,0.037,244.8
2022-01-25T09:22:03,42.805,6.029,-0.01,-0.011,-0.03,100.0,101.0,100.0,13.3,1505.2,329.9,-0.7,1.8,2470.697,13.29,0.014,222.3
2022-01-25T09:25:03,42.805,6.029,-0.034,-0.003,-0.011,103.0,101.0,99.0,13.4,1505.2,328.9,-0.7,1.8,2470.683,13.29,0.034,265.0
2022-01-25T09:28:03,42.805,6.029,-0.003,-0.03,-0.052,100.0,102.0,100.0,13.4,1505.2,328.5,-0.7,1.8,2470.736,13.29,0.03,185.7
2022-01-25T09:31:03,42.805,6.029,-0.035,-0.028,-0.015,101.0,101.0,101.0,13.4,1505.2,323.4,-0.8,1.8,2470.713,13.29,0.044,231.3
2022-01-25T09:34:03,42.805,6.029,-0.024,-0.03,-0.038,101.0,101.0,101.0,13.4,1505.2,326.0,-0.7,1.8,2470.718,13.29,0.038,218.7
2022-01-25T09:37:03,42.805,6.029,-0.015,-0.019,-0.002,103.0,103.0,100.0,13.4,1505.2,329.6,-0.8,1.8,2470.756,13.29,0.024,218.3
2022-01-25T09:40:03,42.805,6.029,-0.017,-0.009,-0.012,102.0,100.0,102.0,13.4,1505.2,326.7,-0.8,1.8,2470.717,13.29,0.019,242.1
2022-01-25T09:43:03,42.805,6.029,-0.005,-0.015,0.001,103.0,101.0,100.0,13.4,1505.2,323.7,-0.8,1.8,2470.724,13.28,0.015,198.4
2022-01-25T09:46:03,42.805,6.029,-0.026,-0.007,0.0,100.0,101.0,101.0,13.4,1505.2,324.1,-0.7,1.8,2470.76,13.28,0.026,254.9
2022-01-25T09:49:03,42.805,6.029,-0.017,-0.027,-0.013,102.0,100.0,100.0,13.4,1505.2,323.6,-0.8,1.8,2470.759,13.29,0.031,212.2
2022-01-25T09:52:03,42.805,6.029,-0.018,-0.027,-0.041,101.0,101.0,100.0,13.4,1505.2,329.2,-0.8,1.8,2470.777,13.29,0.032,213.7